Skip Navigation Links weather.gov 
NOAA logo-Select to go to the NOAA homepage NDBC Title GraphicClick to go to NDBC home page   Select to go to the NWS homepage
Home About Us Contact Us
 
 
    
    Station List

 Data Access
    Mobile Access
    Classic Maps
         Recent
         DART®
    Obs Search
    Ship Obs Report
    BuoyCAMs
    TAO
    DODS
    OceanSITES
    HF Radar
    OSMC
    Dial-A-Buoy
    RSS Feeds Image indicating link to RSS feed access page
    Web Widget
    Email Access
    Web Data Guide
    Maintenance Schedule
    Station Status Report

 Program Info
    TAO
    DART®
    VOS
    IOOS®

 Publications
    NDBC PEA
    NDBC FONSI
    NDBC DQC Handbook

 FAQ
 Visitor Information
 
USA.gov is the U.S. government's official web portal to all federal, state and local government web resources and services.

Station DOMV2 - 8638511 - Dominion Terminal Associates, VA Image indicating link to RSS feed of recent meteorological observations for station DOMV2

Large icon indicates selected station.
yellow diamond Stations with recent data
red diamond Stations with no data in last 8 hours
     (24 hours for tsunami stations)


Conditions at DOMV2 as of
(9:00 pm EDT on 05/20/2018)
0100 GMT on 05/21/2018:
     

Click on the graph icon in the table below to see a time series plot of the last five days of that observation.

5-day plot - Wind Direction Wind Direction (WDIR): SW ( 230 deg true )
5-day plot - Wind Speed Wind Speed (WSPD): 9 kts
5-day plot - Wind Gust Wind Gust (GST): 11 kts
5-day plot - Atmospheric Pressure Atmospheric Pressure (PRES): 30.06 in
5-day plot - Pressure Tendency Pressure Tendency (PTDY): +0.01 in ( Rising )
5-day plot - Air Temperature Air Temperature (ATMP): 78.3 °F
5-day plot - Wind Speed at 10 Meters Wind Speed at 10 meters (WSPD10M): 10 kts
5-day plot - Wind Speed at 10 Meters Wind Speed at 20 meters (WSPD20M): 10 kts
5-day plot - Wind Speed, Wind Gust and Atmospheric Pressure Combined plot of Wind Speed, Gust, and Air Pressure
NOS Water Level Observation Network Water Level
Previous observations
5-day plot - Wind Direction 5-day plot - Wind Speed 5-day plot - Wind Gust 5-day plot - Wave Height 5-day plot - Dominant Wave Period 5-day plot - Average Period 5-day plot - Mean Wave Direction 5-day plot - Atmospheric Pressure 5-day plot - Pressure Tendency 5-day plot - Air Temperature 5-day plot - Water Temperature 5-day plot - Dew Point 5-day plot - Salinity 5-day plot - Visibility 5-day plot - Tide (above MLLW)
MM DD TIME
(EDT)
WDIR WSPD
kts
GST
kts
WVHT
ft
DPD
sec
APD
sec
MWD PRES
in
PTDY
in
ATMP
°F
WTMP
°F
DEWP
°F
SAL
psu
VIS
nmi
TIDE
ft
0520 8:54 pm SW 9 10----30.06- 78.1-----
0520 8:48 pm SW 8 9----30.06- 78.1-----
0520 8:42 pm SW 8 9----30.07- 78.3-----
0520 8:36 pm SW 7 9----30.07- 78.1-----
0520 8:30 pm SW 8 9----30.06- 78.3-----
0520 8:24 pm SW 8 10----30.06- 78.6-----
0520 8:18 pm SW 9 10----30.06- 78.8-----
0520 8:12 pm SW 9 10----30.06- 78.8-----
0520 8:06 pmWSW 8 11----30.06- 79.2-----
0520 8:00 pmWSW 9 11----30.06+0.01 79.3-----
0520 7:54 pmWSW 10 11----30.06- 79.2-----
0520 7:48 pm SW 9 10----30.06- 79.2-----
0520 7:42 pm SW 10 11----30.06- 79.3-----
0520 7:36 pm SW 8 10----30.06- 79.2-----
0520 7:30 pm SW 9 10----30.06- 79.3-----
0520 7:24 pm SW 8 11----30.05- 79.7-----
0520 7:18 pm SW 8 9----30.05- 79.5-----
0520 7:12 pm SW 8 9----30.05- 79.5-----
0520 7:06 pm SW 8 10----30.05- 79.9-----
0520 7:00 pmWSW 8 9----30.05-0.01 79.9-----
0520 6:54 pm SW 8 10----30.05- 79.9-----
0520 6:48 pm SW 9 9----30.05- 80.6-----
0520 6:42 pm SW 7 8----30.05- 80.1-----
0520 6:36 pmWSW 8 10----30.05- 81.5-----
0520 6:30 pmWSW 8 10----30.05- 81.7-----
0520 6:24 pm SW 9 11----30.04- 81.3-----
0520 6:18 pmWSW 10 11----30.04- 81.3-----
0520 6:12 pmWSW 9 11----30.04- 81.1-----
0520 6:06 pmWSW 11 12----30.04- 81.3-----
0520 6:00 pmWSW 11 12----30.04-0.03 81.5-----
0520 5:54 pmWSW 10 12----30.05- 81.1-----
0520 5:48 pm SW 10 12----30.05-------
0520 5:42 pmWSW 9 10----30.05- 81.9-----
0520 5:36 pmWSW 10 11----30.05- 82.0-----
0520 5:30 pmWSW 8 10----30.05- 81.7-----
0520 5:24 pmWSW 8 10----30.05- 81.9-----
0520 5:18 pmWSW 8 9----30.05- 82.0-----
0520 5:12 pmWSW 9 11----30.05- 81.9-----
0520 5:06 pmWSW 9 11----30.05- 82.4-----
0520 5:00 pmWSW 9 10----30.05-0.03 81.9-----
0520 4:54 pm SW 9 10----30.05- 80.8-----
0520 4:48 pm SW 8 10----30.05- 80.8-----
0520 4:42 pmWSW 9 11----30.06- 81.7-----
0520 4:36 pmWSW 10 12----30.06- 81.5-----
0520 4:30 pmWSW 10 14----30.06- 81.3-----
0520 4:24 pmWSW 11 13----30.06- 81.5-----
0520 4:18 pm W 10 12----30.06- 81.3-----
0520 4:12 pmWSW 7 9----30.06- 81.3-----
0520 4:06 pmWSW 9 11----30.06- 81.3-----
0520 4:00 pmWSW 9 13----30.07-0.04 81.0-----
0520 3:54 pmWSW 11 13----30.07- 80.8-----
0520 3:48 pmWSW 9 11----30.07- 80.8-----
0520 3:42 pmWSW 10 12----30.07- 80.6-----
0520 3:36 pm W 11 13----30.07- 80.2-----
0520 3:30 pmWSW 12 14----30.07- 80.2-----
0520 3:24 pm W 11 13----30.07- 79.7-----
0520 3:18 pmWSW 8 11----30.07- 79.9-----
0520 3:12 pm W 11 12----30.07- 79.3-----
0520 3:06 pm W 11 13----30.07- 79.3-----
0520 3:00 pm W 12 14----30.07-0.04 78.8-----
0520 2:54 pm W 12 14----30.07- 78.8-----
0520 2:48 pm W 10 13----30.07- 78.4-----
0520 2:42 pm W 11 14----30.08- 78.6-----
0520 2:36 pm W 13 14----30.08- 79.2-----
0520 2:30 pm W 12 13----30.08- 78.6-----
0520 2:24 pm W 9 10----30.08- 78.8-----
0520 2:18 pm W 8 10----30.08- 78.6-----
0520 2:12 pmWSW 8 11----30.08- 78.4-----
0520 2:06 pm W 10 12----30.08- 78.4-----
0520 2:00 pmWSW 8 11----30.08-0.02 78.6-----
0520 1:54 pmWSW 11 13----30.08- 78.4-----
0520 1:48 pmWSW 13 15----30.09- 78.6-----
0520 1:42 pmWSW 12 14----30.09- 78.1-----
0520 1:36 pm W 7 10----30.09- 77.7-----
0520 1:30 pmWSW 9 12----30.09- 78.1-----
0520 1:24 pmWSW 11 12----30.10- 78.1-----
0520 1:18 pmWSW 9 15----30.09- 78.3-----
0520 1:12 pmWSW 11 14----30.09- 78.1-----
0520 1:06 pmWSW 12 13----30.10- 78.3-----
0520 1:00 pmWSW 9 11----30.10-0.01 77.7-----
052012:54 pm SW 9 11----30.10- 76.8-----
052012:48 pm SW 9 11----30.11- 77.2-----
052012:42 pm SW 10 13----30.11- 77.2-----
052012:36 pm SW 13 17----30.11- 77.4-----
052012:30 pm SW 14 16----30.11- 77.0-----
052012:24 pm SW 13 16----30.11- 77.2-----
052012:18 pm SW 14 16----30.11- 77.2-----
052012:12 pm SW 15 16----30.11- 77.2-----
052012:06 pm SW 15 17----30.11- 77.2-----
052012:00 pm SW 10 13----30.11-0.01 77.0-----
052011:54 amWSW 9 12----30.11- 77.2-----
052011:48 am SW 10 13----30.11- 76.5-----
052011:42 am SW 12 15----30.11- 76.6-----
052011:36 am SW 12 16----30.11- 76.3-----
052011:30 am SW 13 15----30.11- 76.1-----
052011:24 am SW 12 15----30.11- 76.1-----
052011:18 amSSW 11 13----30.11- 75.9-----
052011:12 am SW 14 17----30.10- 76.1-----
052011:06 am SW 13 18----30.10- 75.7-----
052011:00 amSSW 13 16----30.10-0.01 75.6-----
052010:54 amSSW 14 17----30.10- 75.6-----
052010:48 am SW 12 16----30.11- 75.6-----
052010:42 am SW 12 15----30.11- 75.6-----
052010:36 amWSW 13 15----30.11- 75.4-----
052010:30 am SW 13 15----30.11- 75.2-----
052010:24 amWSW 14 16----30.11- 75.2-----
052010:18 amWSW 14 18----30.12- 75.2-----
052010:12 amWSW 17 21----30.11- 75.0-----
052010:06 amWSW 16 20----30.11- 75.0-----
052010:00 amWSW 13 16----30.11+0.00 75.0-----
0520 9:54 amWSW 13 18----30.11- 75.4-----
0520 9:48 am SW 15 17----30.11- 74.8-----
0520 9:42 amWSW 14 16----30.11- 74.8-----
0520 9:36 am SW 15 17----30.11- 74.8-----
0520 9:30 am SW 14 17----30.11- 74.7-----
0520 9:24 am SW 11 17----30.11- 74.3-----
0520 9:18 am SW 12 17----30.11- 74.3-----
0520 9:12 am SW 13 18----30.12- 74.3-----
0520 9:06 am SW 13 18----30.12- 74.1-----
0520 9:00 am SW 13 16----30.12+0.02 73.9-----
0520 8:54 am SW 10 14----30.12- 73.9-----
0520 8:48 am SW 13 16----30.12- 73.9-----
0520 8:42 am SW 12 16----30.12- 73.8-----
0520 8:36 am SW 15 18----30.12- 73.9-----
0520 8:30 am SW 15 20----30.12- 73.8-----
0520 8:24 am SW 13 16----30.12- 73.6-----
0520 8:18 am SW 12 16----30.12- 73.6-----
0520 8:12 am SW 14 16----30.12- 73.6-----
0520 8:06 amWSW 13 19----30.12- 73.4-----
0520 8:00 am SW 17 20----30.12+0.01 73.4-----
0520 7:54 am SW 15 19----30.12- 73.6-----
0520 7:48 am SW 17 19----30.12- 73.4-----
0520 7:42 am SW 16 19----30.11- 73.4-----
0520 7:36 amSSW 16 20----30.12- 73.4-----
0520 7:30 amSSW 16 19----30.11- 73.4-----
0520 7:24 am SW 14 17----30.11- 73.4-----
0520 7:18 am SW 15 17----30.11- 73.4-----
0520 7:12 am SW 14 17----30.11- 73.4-----
0520 7:06 am SW 16 20----30.11- 73.4-----
0520 7:00 am SW 15 19----30.11+0.01 73.4-----
0520 6:54 am SW 14 17----30.11- 73.4-----
0520 6:48 am SW 15 18----30.11- 73.4-----
0520 6:42 am SW 15 16----30.11- 73.4-----
0520 6:36 amSSW 13 16----30.11- 73.4-----
0520 6:30 am SW 12 16----30.11- 73.4-----
0520 6:24 am SW 14 17----30.11- 73.6-----
0520 6:18 am SW 13 16----30.11- 73.4-----
0520 6:12 am SW 13 16----30.10- 73.4-----
0520 6:06 am SW 13 16----30.11- 73.4-----
0520 6:00 am SW 13 16----30.11+0.00 73.6-----
0520 5:54 am SW 12 18----30.11- 73.4-----
0520 5:48 am SW 13 19----30.11- 73.6-----
0520 5:42 am SW 15 19----30.11- 73.6-----
0520 5:36 am SW 12 16----30.11- 73.4-----
0520 5:30 am SW 14 18----30.11- 73.4-----
0520 5:24 am SW 12 15----30.11- 73.2-----
0520 5:18 am SW 12 16----30.11- 73.2-----
0520 5:12 am SW 12 13----30.11- 73.2-----
0520 5:06 am SW 12 14----30.11- 73.2-----
0520 5:00 amSSW 12 15----30.11-0.01 73.2-----
0520 4:54 amSSW 11 17----30.11- 73.2-----
0520 4:48 amSSW 13 17----30.11- 73.2-----
0520 4:42 amSSW 14 16----30.11- 73.2-----
0520 4:36 amSSW 11 15----30.10- 73.0-----
0520 4:30 amSSW 13 16----30.10- 73.2-----
0520 4:24 amSSW 13 18----30.09- 73.0-----
0520 4:18 amSSW 13 15----30.10- 73.0-----
0520 4:12 amSSW 13 15----30.10- 73.0-----
0520 4:06 amSSW 12 16----30.10- 73.0-----
0520 4:00 amSSW 14 17----30.10-0.03 73.2-----
0520 3:54 amSSW 13 18----30.10- 73.2-----
0520 3:48 amSSW 15 18----30.10- 73.2-----
0520 3:42 amSSW 16 18----30.10- 73.2-----
0520 3:36 amSSW 16 19----30.10- 73.2-----
0520 3:30 amSSW 14 19----30.10- 73.2-----
0520 3:24 amSSW 15 18----30.10- 73.2-----
0520 3:18 amSSW 14 16----30.11- 73.2-----
0520 3:12 amSSW 14 17----30.10- 73.2-----
0520 3:06 amSSW 14 16----30.11- 73.2-----
0520 3:00 amSSW 13 15----30.11-0.02 73.2-----
0520 2:54 am SW 13 14----30.11- 73.2-----
0520 2:48 am SW 13 16----30.11- 73.0-----
0520 2:42 amSSW 13 15----30.11- 73.0-----
0520 2:36 amSSW 10 14----30.11- 72.9-----
0520 2:30 amSSW 11 14----30.11- 72.9-----
0520 2:24 amSSW 12 13----30.11- 72.9-----
0520 2:18 amSSW 11 13----30.11- 72.7-----
0520 2:12 amSSW 11 14----30.12- 72.7-----
0520 2:06 amSSW 9 12----30.12- 72.5-----
0520 2:00 amSSW 10 12----30.12+0.00 72.5-----
0520 1:54 amSSW 11 13----30.12- 72.5-----
0520 1:48 amSSW 11 14----30.12- 72.3-----
0520 1:42 amSSW 11 13----30.12- 72.3-----
0520 1:36 amSSW 12 13----30.12- 72.3-----
0520 1:30 amSSW 12 15----30.12- 72.1-----
0520 1:24 amSSW 12 15----30.12- 72.1-----
0520 1:18 amSSW 12 13----30.12- 72.1-----
0520 1:12 amSSW 10 13----30.13- 72.1-----
0520 1:06 amSSW 10 15----30.13- 72.1-----
0520 1:00 amSSW 12 13----30.13+0.01 72.0-----
052012:54 amSSW 12 14----30.13- 72.0-----
052012:48 amSSW 12 14----30.13- 72.0-----
052012:42 amSSW 12 13----30.13- 71.8-----
052012:36 amSSW 11 12----30.13- 71.8-----
052012:30 am S 11 15----30.13- 72.0-----
052012:24 amSSW 11 13----30.13- 72.0-----
052012:18 amSSW 13 16----30.13- 72.0-----
052012:12 amSSW 11 14----30.13- 72.1-----
052012:06 amSSW 13 15----30.13- 72.0-----
052012:00 amSSW 12 14----30.13+0.02 72.0-----
051911:54 pmSSW 11 14----30.13- 72.0-----
051911:48 pmSSW 9 13----30.14- 72.0-----
051911:42 pmSSW 10 13----30.13- 72.0-----
051911:36 pmSSW 10 13----30.13- 72.0-----
051911:30 pmSSW 11 12----30.13- 72.0-----
051911:24 pmSSW 10 12----30.13- 72.0-----
051911:18 pmSSW 10 12----30.13- 72.0-----
051911:12 pm S 9 12----30.13- 72.0-----
051911:06 pmSSW 12 13----30.12- 72.3-----
051911:00 pm S 12 14----30.12+0.02 72.5-----
051910:54 pm S 12 14----30.12- 72.7-----
051910:48 pmSSW 12 15----30.12- 72.7-----
051910:42 pmSSW 13 15----30.12- 72.9-----
051910:36 pmSSW 14 15----30.12- 72.9-----
051910:30 pmSSW 12 16----30.12- 72.9-----
051910:24 pmSSW 13 17----30.12- 73.0-----
051910:18 pmSSW 13 14----30.12- 73.2-----
051910:12 pmSSW 11 14----30.12- 73.0-----
051910:06 pmSSW 13 15----30.12- 73.0-----
051910:00 pmSSW 13 16----30.12+0.00 73.2-----
0519 9:54 pmSSW 14 17----30.12- 73.2-----
0519 9:48 pmSSW 13 17----30.11- 73.2-----
0519 9:42 pmSSW 13 15----30.11- 73.2-----
0519 9:36 pmSSW 11 13----30.11- 73.0-----
0519 9:30 pmSSW 12 14----30.11- 73.0-----
0519 9:24 pm S 12 14----30.11- 73.2-----
0519 9:18 pm S 11 16----30.11- 73.0-----
0519 9:12 pm S 12 13----30.11- 73.0-----
0519 9:06 pmSSW 11 12----30.11- 73.2-----
0519 9:00 pmSSW 11 15----30.11-0.01 73.2-----
0519 8:54 pm S 10 12----30.11- 73.2-----

Description of Measurements

Links which are specific to this station are listed below:

Real Time Data in tabular form for the last forty-five days.

Historical Data & Climatic Summaries for quality controlled data for the current month, previous months, and previous years.